Location: Lake Sonoma
(38.7200°N, 123.0564°W)
Time: 21:34:01
(UTC-07:00)

Amateur Radio Satellites - All Passes

Search period start: 20 April 2014 21:04
Search period end: 21 April 2014 21:04
Location: Lake Sonoma, 38.7200°N, 123.0564°W

Satellite Date Start Highest point End Downlink Frequencies (MHz)
Time Altitude Azimuth
Oscar 11 20 Apr 21:07:27 21:09:59 16° 65° (ENE) 21:12:31 145.825 FM, Beacon 2401.500 USB
STRAND 1 20 Apr 21:09:51 21:13:40 22° 295° (WNW) 21:17:28 ?
HO-68 20 Apr 21:25:59 21:33:06 80° 72° (ENE) 21:40:16 435.675 MHz FM
Saudisat 1A 20 Apr 21:29:11 21:32:01 17° 250° (WSW) 21:34:50 436.775 MHz
ISS 20 Apr 21:35:29 21:38:45 47° 35° (NE) 21:42:00 145.800 FM
MaSat-1 20 Apr 22:32:15 22:34:02 15° 300° (WNW) 22:35:43 437.345 MHz
FUNcube-1 20 Apr 22:36:25 22:40:25 45° 73° (ENE) 22:44:23 145.950 - 145.970 MHz USB
Oscar 11 20 Apr 22:41:40 22:45:47 44° 261° (W) 22:49:56 145.825 FM, Beacon 2401.500 USB
ISS 20 Apr 23:12:58 23:15:13 17° 230° (SW) 23:17:28 145.800 FM
HO-68 20 Apr 23:17:09 23:21:29 17° 269° (W) 23:25:51 435.675 MHz FM
PCSat 20 Apr 23:18:22 23:20:44 13° 103° (ESE) 23:23:07 145.825 MHz
Sapphire 21 Apr 00:13:45 00:18:47 41° 111° (ESE) 00:23:50 437.095 MHz 1200 baud AX-25 AFSK
FUNcube-1 21 Apr 00:15:01 00:17:03 13° 268° (W) 00:19:06 145.950 - 145.970 MHz USB
SO-50 21 Apr 00:25:27 00:30:04 61° 56° (ENE) 00:34:44 436.795 FM
PCSat 21 Apr 00:58:02 01:03:26 76° 299° (WNW) 01:08:53 145.825 MHz
UOSAT-12 21 Apr 01:01:15 01:02:52 12° 39° (NE) 01:04:29 437.025 FM, 437.400 FM
KITSAT 1 21 Apr 01:31:53 01:37:20 20° 102° (ESE) 01:42:48 435.175 FM
Sapphire 21 Apr 01:57:43 02:02:19 28° 308° (NW) 02:06:56 437.095 MHz 1200 baud AX-25 AFSK
AO-27 21 Apr 02:05:02 02:07:26 13° 91° (E) 02:09:50 436.795 MHz FM
SO-50 21 Apr 02:07:40 02:10:09 14° 252° (WSW) 02:12:38 436.795 FM
Oscar 19 21 Apr 02:14:27 02:19:08 33° 97° (E) 02:23:47 437.125 CW, 437.150 USB
ITAMSAT 1 21 Apr 02:14:35 02:17:49 17° 92° (E) 02:21:02 435.822 SSB
Oscar 16 21 Apr 02:22:51 02:27:48 43° 99° (E) 02:32:43 437.025 USB, Beacon 2401.1428
OPAL 21 Apr 02:25:04 02:29:39 37° 67° (ENE) 02:34:19 ?
UOSAT-12 21 Apr 02:39:07 02:43:52 74° 58° (ENE) 02:48:32 437.025 FM, 437.400 FM
PCSat 21 Apr 02:45:25 02:47:47 13° 318° (NW) 02:50:10 145.825 MHz
Uribyol 2 21 Apr 03:01:09 03:06:12 51° 100° (E) 03:11:13 436.500 FM
KITSAT 1 21 Apr 03:23:39 03:31:47 81° 300° (WNW) 03:39:57 435.175 FM
AO-Echo 21 Apr 03:41:47 03:46:34 82° 284° (WNW) 03:51:14 ?
AO-27 21 Apr 03:42:15 03:47:24 67° 286° (WNW) 03:52:32 436.795 MHz FM
Gurwin Techsat 1B 21 Apr 03:44:39 03:49:37 39° 98° (E) 03:54:32 435.225 FM
ITAMSAT 1 21 Apr 03:52:35 03:57:37 55° 288° (WNW) 04:02:39 435.822 SSB
Oscar 19 21 Apr 03:53:57 03:58:21 28° 293° (WNW) 04:02:44 437.125 CW, 437.150 USB
Oscar 16 21 Apr 04:02:53 04:06:51 23° 295° (WNW) 04:10:48 437.025 USB, Beacon 2401.1428
Uosat F 21 Apr 04:03:40 04:06:02 13° 91° (E) 04:08:24 435.120 FM
OPAL 21 Apr 04:04:34 04:08:36 24° 263° (W) 04:12:43 ?
JAS-1B 21 Apr 04:07:25 04:11:44 22° 95° (E) 04:16:14 435.800 - 435.900 CW/SSB
UOSAT-12 21 Apr 04:21:49 04:23:22 12° 253° (WSW) 04:24:55 437.025 FM, 437.400 FM
TMSAT-1 21 Apr 04:31:28 04:36:47 78° 103° (ESE) 04:42:04 436.925 FM
Uribyol 2 21 Apr 04:41:41 04:45:16 19° 296° (WNW) 04:48:50 436.500 FM
AO-7 21 Apr 04:42:21 04:49:14 28° 96° (E) 04:56:04 29.400 - 29.500 MHz
KITSAT 1 21 Apr 05:22:38 05:28:30 21° 322° (NW) 05:34:23 435.175 FM
Gurwin Techsat 1B 21 Apr 05:25:05 05:29:20 25° 294° (WNW) 05:33:35 435.225 FM
Uosat F 21 Apr 05:40:17 05:45:14 63° 287° (WNW) 05:50:09 435.120 FM
JAS-1B 21 Apr 05:57:18 06:02:39 44° 290° (WNW) 06:08:14 435.800 - 435.900 CW/SSB
TMSAT-1 21 Apr 06:13:36 06:16:00 13° 299° (WNW) 06:18:24 436.925 FM
RS-15 21 Apr 06:13:41 06:24:10 45° 109° (ESE) 06:34:18 29.354 - 29.394 USB, Beacon 29.352 USB
AO-7 21 Apr 06:34:16 06:42:25 62° 293° (WNW) 06:50:33 29.400 - 29.500 MHz
STRAND 1 21 Apr 06:44:32 06:49:31 55° 72° (ENE) 06:54:30 ?
MaSat-1 21 Apr 06:54:50 06:57:46 41° 64° (ENE) 07:01:12 437.345 MHz
JAS-2 21 Apr 07:12:25 07:16:20 19° 95° (E) 07:20:30 435.800 - 435.900 CW/SSB, 435.910 FM
Hamsat 21 Apr 07:12:34 07:16:51 54° 100° (E) 07:21:07 145.90 MHz
PANSAT 21 Apr 07:59:43 08:01:07 12° 165° (SSE) 08:02:31 not established
PCSat 21 Apr 08:06:45 08:08:15 11° 40° (NE) 08:09:45 145.825 MHz
RS-15 21 Apr 08:25:22 08:36:18 53° 310° (NW) 08:46:59 29.354 - 29.394 USB, Beacon 29.352 USB
STRAND 1 21 Apr 08:25:54 08:29:01 16° 268° (W) 08:32:08 ?
AO-7 21 Apr 08:30:11 08:33:32 13° 313° (NW) 08:36:53 29.400 - 29.500 MHz
Hamsat 21 Apr 08:50:16 08:52:21 13° 295° (WNW) 08:54:27 145.90 MHz
SO-67 21 Apr 08:54:05 08:57:25 42° 286° (WNW) 09:00:44 435.3500 MHz FM
JAS-2 21 Apr 08:56:20 09:01:38 53° 287° (WNW) 09:07:29 435.800 - 435.900 CW/SSB, 435.910 FM
HO-68 21 Apr 08:57:30 09:01:20 15° 90° (E) 09:05:10 435.675 MHz FM
Sapphire 21 Apr 09:03:08 09:07:43 27° 51° (NE) 09:12:15 437.095 MHz 1200 baud AX-25 AFSK
KITSAT 1 21 Apr 09:25:14 09:28:12 12° 24° (NNE) 09:31:10 435.175 FM
PANSAT 21 Apr 09:38:00 09:40:40 18° 178° (S) 09:43:19 not established
PCSat 21 Apr 09:47:21 09:52:46 64° 60° (ENE) 09:58:07 145.825 MHz
Saudisat 1A 21 Apr 09:55:27 09:58:14 16° 109° (ESE) 10:01:02 436.775 MHz
Oscar 10/S400 21 Apr 10:21:07 11:58:27 60° 226° (SW) 19:12:25 145.825 - 145.975 CW/USB, Beacon 145.810 USB
Oscar 11 21 Apr 10:30:41 10:34:41 35° 97° (E) 10:38:40 145.825 FM, Beacon 2401.500 USB
HO-68 21 Apr 10:42:36 10:49:50 88° 287° (WNW) 10:57:01 435.675 MHz FM
RS-15 21 Apr 10:44:35 10:52:02 20° 340° (NNW) 10:59:26 29.354 - 29.394 USB, Beacon 29.352 USB
Sapphire 21 Apr 10:46:11 10:51:17 43° 249° (WSW) 10:56:20 437.095 MHz 1200 baud AX-25 AFSK
PANSAT 21 Apr 11:18:04 11:20:15 15° 191° (S) 11:22:25 not established
KITSAT 1 21 Apr 11:18:40 11:26:15 41° 50° (NE) 11:33:45 435.175 FM
PCSat 21 Apr 11:32:24 11:35:35 16° 256° (WSW) 11:38:45 145.825 MHz
Saudisat 1A 21 Apr 11:33:07 11:37:26 49° 305° (NW) 11:41:47 436.775 MHz
FUNcube-1 21 Apr 12:02:50 12:07:05 67° 285° (WNW) 12:11:25 145.950 - 145.970 MHz USB
Oscar 11 21 Apr 12:07:29 12:10:38 20° 293° (WNW) 12:13:46 145.825 FM, Beacon 2401.500 USB
HO-68 21 Apr 12:32:19 12:36:31 17° 305° (NW) 12:40:43 435.675 MHz FM
RS-15 21 Apr 13:03:14 13:10:26 19° 18° (NNE) 13:17:38 29.354 - 29.394 USB, Beacon 29.352 USB
KITSAT 1 21 Apr 13:14:06 13:21:42 46° 250° (WSW) 13:29:14 435.175 FM
AO-Echo 21 Apr 13:17:31 13:19:58 14° 62° (ENE) 13:22:22 ?
AO-27 21 Apr 13:21:37 13:25:13 19° 64° (ENE) 13:28:49 436.795 MHz FM
Oscar 19 21 Apr 13:30:02 13:34:50 42° 70° (ENE) 13:39:41 437.125 CW, 437.150 USB
ITAMSAT 1 21 Apr 13:31:14 13:35:15 23° 66° (ENE) 13:39:16 435.822 SSB
Oscar 16 21 Apr 13:38:30 13:43:29 54° 72° (ENE) 13:48:31 437.025 USB, Beacon 2401.1428
TMSAT-1 21 Apr 14:14:37 14:17:01 13° 61° (ENE) 14:19:25 436.925 FM
ISS 21 Apr 14:17:14 14:20:13 31° 134° (SE) 14:23:13 145.800 FM
Uribyol 2 21 Apr 14:17:44 14:22:51 68° 74° (ENE) 14:27:59 436.500 FM
OPAL 21 Apr 14:39:18 14:40:13 10° 91° (E) 14:41:08 ?
SO-50 21 Apr 14:40:06 14:43:47 26° 112° (ESE) 14:47:30 436.795 FM
JAS-1B 21 Apr 14:51:25 14:57:03 23° 64° (ENE) 15:02:04 435.800 - 435.900 CW/SSB
AO-Echo 21 Apr 14:52:53 14:58:07 75° 258° (WSW) 15:03:15 ?
AO-27 21 Apr 14:59:18 15:04:20 50° 260° (W) 15:09:23 436.795 MHz FM
Gurwin Techsat 1B 21 Apr 15:04:23 15:09:32 54° 72° (ENE) 15:14:42 435.225 FM
ITAMSAT 1 21 Apr 15:09:37 15:14:28 41° 261° (W) 15:19:21 435.822 SSB
Oscar 19 21 Apr 15:10:26 15:14:20 22° 266° (W) 15:18:15 437.125 CW, 437.150 USB
Uosat F 21 Apr 15:15:34 15:18:51 18° 64° (ENE) 15:22:08 435.120 FM
RS-15 21 Apr 15:15:49 15:26:22 50° 49° (NE) 15:37:07 29.354 - 29.394 USB, Beacon 29.352 USB
Oscar 16 21 Apr 15:19:59 15:23:10 16° 268° (W) 15:26:22 437.025 USB, Beacon 2401.1428
AO-7 21 Apr 15:40:03 15:47:18 36° 60° (ENE) 15:54:33 29.400 - 29.500 MHz
TMSAT-1 21 Apr 15:50:57 15:56:14 78° 257° (WSW) 16:01:33 436.925 FM
ISS 21 Apr 15:53:57 15:56:56 29° 330° (NNW) 15:59:55 145.800 FM
Uribyol 2 21 Apr 16:00:25 16:02:46 13° 269° (W) 16:05:08 436.500 FM
OPAL 21 Apr 16:14:25 16:19:40 84° 287° (WNW) 16:24:53 ?
SO-50 21 Apr 16:20:11 16:24:13 32° 309° (NW) 16:28:17 436.795 FM
JAS-1B 21 Apr 16:39:12 16:47:18 66° 257° (WSW) 16:54:04 435.800 - 435.900 CW/SSB
Gurwin Techsat 1B 21 Apr 16:46:22 16:49:49 17° 268° (W) 16:53:16 435.225 FM
UOSAT-12 21 Apr 16:49:39 16:53:33 29° 113° (ESE) 16:57:33 437.025 FM, 437.400 FM
Uosat F 21 Apr 16:52:18 16:57:12 52° 259° (W) 17:02:07 435.120 FM
RS-15 21 Apr 17:28:24 17:38:39 48° 250° (WSW) 17:49:14 29.354 - 29.394 USB, Beacon 29.352 USB
AO-7 21 Apr 17:31:48 17:39:46 51° 258° (WSW) 17:47:48 29.400 - 29.500 MHz
ISS 21 Apr 17:33:48 17:34:32 11° 350° (N) 17:35:16 145.800 FM
OPAL 21 Apr 17:56:24 17:57:43 11° 303° (WNW) 17:59:02 ?
Hamsat 21 Apr 18:05:03 18:08:47 32° 71° (ENE) 18:12:34 145.90 MHz
Saudisat 1A 21 Apr 18:23:31 18:25:16 12° 41° (NE) 18:27:01 436.775 MHz
UOSAT-12 21 Apr 18:29:36 18:33:38 30° 310° (NW) 18:37:46 437.025 FM, 437.400 FM
STRAND 1 21 Apr 18:57:23 19:01:08 20° 94° (E) 19:04:52 ?
JAS-2 21 Apr 19:07:25 19:13:02 53° 73° (ENE) 19:18:11 435.800 - 435.900 CW/SSB, 435.910 FM
ISS 21 Apr 19:11:46 19:12:33 11° 11° (N) 19:13:19 145.800 FM
SO-67 21 Apr 19:26:16 19:29:36 45° 75° (ENE) 19:32:58 435.3500 MHz FM
HO-68 21 Apr 19:28:14 19:30:00 11° 51° (NE) 19:31:45 435.675 MHz FM
Hamsat 21 Apr 19:41:48 19:44:50 19° 267° (W) 19:47:53 145.90 MHz
Saudisat 1A 21 Apr 20:01:06 20:05:32 89° 57° (ENE) 20:09:54 436.775 MHz
STRAND 1 21 Apr 20:35:41 20:40:30 43° 289° (WNW) 20:45:17 ?
ISS 21 Apr 20:47:08 20:50:08 30° 30° (NNE) 20:53:08 145.800 FM
JAS-2 21 Apr 20:54:36 20:58:22 18° 266° (W) 21:01:57 435.800 - 435.900 CW/SSB, 435.910 FM
MaSat-1 21 Apr 20:57:19 20:59:51 26° 111° (ESE) 21:02:08 437.345 MHz
